Weather History for Salinas, CA

Change the Weather History Date:

Tuesday, August 13, 2013

  Actual Average Record
Temperature  
Mean Temperature 64 °F 64 °F  
Max Temperature 74 °F 72 °F 94 °F (1991)
Min Temperature 54 °F 56 °F 48 °F (1969)
Degree Days  
Heating Degree Days 1 2  
Month to date heating degree days 31 26  
Since 1 June heating degree days 199 217  
Since 1 July heating degree days 101 104  
Cooling Degree Days 0 1  
Month to date cooling degree days 0 10  
Year to date cooling degree days 47 56  
Since 1 June cooling degree days 37 40  
Growing Degree Days 12 (Base 50)    
Moisture  
Dew Point 54 °F    
Average Humidity 79    
Maximum Humidity 100    
Minimum Humidity 57    
Precipitation  
Precipitation 0.00 in 0.01 in 0.03 in (1991)
Month to date precipitation 0.02 0.02  
Year to date precipitation 2.35 8.74  
Since 1 July precipitation 0.02 0.02  
Sea Level Pressure  
Sea Level Pressure 30.00 in    
Wind  
Wind Speed 8 mph (West)    
Max Wind Speed 17 mph    
Max Gust Speed 22 mph    
Visibility 5 miles    
Events Fog    
T = Trace of Precipitation, MM = Missing Value Source: NWS Daily Summary

Daily Weather History Graph

Daily Weather History Graph

Search for Another Location

Airport:

Trip Planner

Search our weather history database for the weather conditions in past years. The results will help you decide how hot, cold, wet, or windy it might be!

Date:

Astronomy

Aug. 13, 2013 Rise Set
Actual Time 6:22 AM PDT 7:59 PM PDT
Civil Twilight 5:54 AM PDT 8:26 PM PDT
Nautical Twilight 5:21 AM PDT 9:00 PM PDT
Astronomical Twilight 4:46 AM PDT 9:35 PM PDT
Moon 1:10 PM PDT (8/13) 11:51 PM PDT (8/13)
Length of Visible Light 14h 32m
Length of Day
13h 36m
Waxing Crescent, 43% of the Moon is Illuminated
Aug 13
Waxing Crescent
Aug 14
First Quarter
Aug 20
Full
Aug 28
Last Quarter
Sep 5
New

Hourly Weather History & Observations

Time (PDT) Temp. Dew Point Humidity Pressure Visibility Wind Dir Wind Speed Gust Speed Precip Events Conditions
12:33 AM 55.4 °F 53.6 °F 94% 30.00 in 2.0 mi WNW 5.8 mph - N/A   Overcast
12:45 AM 55.4 °F 53.6 °F 94% 30.00 in 3.0 mi West 4.6 mph - N/A   Overcast
12:53 AM 55.9 °F 54.0 °F 93% 30.02 in 3.0 mi West 4.6 mph - N/A   Overcast
1:18 AM 55.4 °F 53.6 °F 94% 29.99 in 1.8 mi West 5.8 mph - N/A   Overcast
1:40 AM 55.4 °F 53.6 °F 94% 29.99 in 3.0 mi WSW 5.8 mph - N/A   Overcast
1:53 AM 55.9 °F 54.0 °F 93% 30.01 in 3.0 mi WNW 3.5 mph - N/A   Overcast
2:02 AM 55.4 °F 53.6 °F 94% 29.99 in 2.0 mi Calm Calm - N/A   Overcast
2:35 AM 55.4 °F 53.6 °F 94% 29.99 in 3.0 mi SW 3.5 mph - N/A   Overcast
2:48 AM 55.4 °F 53.6 °F 94% 29.99 in 2.0 mi Calm Calm - N/A   Overcast
2:53 AM 55.9 °F 54.0 °F 93% 30.02 in 2.0 mi Calm Calm - N/A   Overcast
3:09 AM 55.4 °F 53.6 °F 94% 29.99 in 3.0 mi WSW 4.6 mph - N/A   Overcast
3:43 AM 55.4 °F 53.6 °F 94% 29.99 in 2.5 mi SW 4.6 mph - N/A   Overcast
3:53 AM 55.0 °F 53.1 °F 93% 30.02 in 3.0 mi Variable 3.5 mph - N/A   Overcast
4:37 AM 55.4 °F 53.6 °F 94% 29.99 in 1.8 mi WSW 3.5 mph - N/A   Overcast
4:46 AM 55.4 °F 53.6 °F 94% 29.99 in 3.0 mi West 4.6 mph - N/A   Overcast
4:53 AM 54.0 °F 53.1 °F 97% 30.01 in 4.0 mi SW 3.5 mph - N/A   Overcast
5:16 AM 55.4 °F 53.6 °F 94% 29.99 in 2.0 mi Variable 3.5 mph - N/A   Overcast
5:25 AM 53.6 °F 51.8 °F 94% 29.99 in 1.2 mi South 3.5 mph - N/A   Overcast
5:53 AM 54.0 °F 53.1 °F 97% 30.01 in 1.2 mi SSE 3.5 mph - N/A   Overcast
6:35 AM 53.6 °F 53.6 °F 100% 29.99 in 0.5 mi South 3.5 mph - N/A Fog Fog
6:53 AM 54.0 °F 53.1 °F 97% 30.02 in 0.8 mi Calm Calm - N/A   Overcast
7:00 AM 53.6 °F 53.6 °F 100% 29.99 in 1.2 mi Calm Calm - N/A   Overcast
7:06 AM 53.6 °F 53.6 °F 100% 30.00 in 3.0 mi South 3.5 mph - N/A   Overcast
7:15 AM 53.6 °F 53.6 °F 100% 30.00 in 1.8 mi Calm Calm - N/A   Overcast
7:53 AM 54.0 °F 53.1 °F 97% 30.04 in 1.2 mi Calm Calm - N/A   Overcast
8:10 AM 53.6 °F 53.6 °F 100% 30.01 in 3.0 mi Calm Calm - N/A   Overcast
8:53 AM 55.0 °F 53.1 °F 93% 30.04 in 4.0 mi SE 4.6 mph - N/A   Overcast
9:45 AM 57.2 °F 53.6 °F 88% 30.00 in 8.0 mi Calm Calm - N/A   Overcast
9:53 AM 59.0 °F 54.0 °F 83% 30.03 in 8.0 mi Calm Calm - N/A   Mostly Cloudy
10:07 AM 60.8 °F 53.6 °F 77% 30.00 in 8.0 mi Calm Calm - N/A   Scattered Clouds
10:53 AM 66.0 °F 54.0 °F 65% 30.02 in 10.0 mi Calm Calm - N/A   Clear
11:53 AM 72.0 °F 55.0 °F 55% 30.01 in 9.0 mi WNW 6.9 mph - N/A   Clear
12:53 PM 71.1 °F 55.0 °F 57% 30.00 in 9.0 mi WNW 12.7 mph - N/A   Clear
1:53 PM 70.0 °F 55.0 °F 59% 30.00 in 10.0 mi WNW 12.7 mph - N/A   Clear
2:53 PM 72.0 °F 55.0 °F 55% 29.99 in 9.0 mi WNW 13.8 mph - N/A   Clear
3:53 PM 70.0 °F 55.0 °F 59% 29.98 in 9.0 mi West 16.1 mph 20.7 mph N/A   Clear
4:53 PM 64.9 °F 54.0 °F 68% 29.98 in 9.0 mi WNW 13.8 mph - N/A   Clear
5:53 PM 63.0 °F 55.0 °F 75% 29.99 in 8.0 mi West 12.7 mph - N/A   Clear
6:53 PM 63.0 °F 54.0 °F 72% 29.98 in 9.0 mi WNW 12.7 mph - N/A   Clear
7:53 PM 63.0 °F 53.1 °F 70% 29.98 in 10.0 mi NW 10.4 mph - N/A   Clear
8:53 PM 62.1 °F 54.0 °F 75% 29.98 in 10.0 mi NW 12.7 mph - N/A   Clear
9:53 PM 61.0 °F 54.0 °F 78% 29.99 in 10.0 mi NW 10.4 mph - N/A   Clear
10:53 PM 60.1 °F 54.0 °F 80% 29.99 in 10.0 mi NW 8.1 mph - N/A   Clear
11:53 PM 60.1 °F 54.0 °F 80% 30.01 in 9.0 mi NNW 10.4 mph - N/A   Clear